GW6153 Weather Reports


Display with metric or nautical units.
time (UTC)temp
F
wind
direction
speed
MPH
gust
MPH
rain 1hr
in
rain 24hr
in
rain mn
in
humidity
%
barometer
mb
20260906220101 100 91 2.0 2.0 0.00 0.00 0.00 36 1010.8
20260906203622 102 85 1.0 1.0 0.00 0.00 0.00 37 1011.9
20260906195515 104 190 1.0 1.0 0.00 0.00 0.00 35 1012.2
20260906182624 100 189 1.0 1.0 0.00 0.00 0.00 40 1013.2
20260906175144 100 80 1.0 1.0 0.00 0.00 0.00 42 1013.5
20260906172711 99 95 1.0 1.0 0.00 0.00 0.00 43 1013.9
20260906171711 98 119 1.0 1.0 0.00 0.00 0.00 46 1014.2
20260906170712 98 140 1.0 1.0 0.00 0.00 0.00 44 1014.2
20260906170344 97 96 1.0 1.0 0.00 0.00 0.00 45 1014.2
20260906165539 97 51 1.0 1.0 0.00 0.00 0.00 45 1014.2
20260906163149 96 134 1.0 1.0 0.00 0.00 0.00 49 1014.6
20260906162225 97 130 1.0 1.0 0.00 0.00 0.00 48 1014.6
20260906162149 97 130 1.0 1.0 0.00 0.00 0.00 48 1014.6
20260906161149 96 239 1.0 1.0 0.00 0.00 0.00 50 1014.6
20260906154650 95 213 0.0 0.0 0.00 0.00 0.00 53 1014.6
20260906141038 89 196 0.0 0.0 0.00 0.00 0.00 64 1014.2
20260906132653 82 92 0.0 0.0 0.00 0.00 0.00 75 1014.2
20260906131654 80 141 0.0 0.0 0.00 0.00 0.00 79 1014.2
20260906125654 78 0 0.0 0.0 0.00 0.00 0.00 84 1013.9
20260906125154 78 37 0.0 0.0 0.00 0.00 0.00 85 1013.9
20260906124154 77 314 0.0 0.0 0.00 0.00 0.00 86 1013.9
20260906121125 77 0 0.0 0.0 0.00 0.00 0.00 86 1013.5
20260906105336 78 0 1.0 1.0 0.00 0.00 0.00 83 1012.9
20260906082005 82 0 1.0 1.0 0.00 0.00 0.00 76 1012.2
20260906080338 81 0 1.0 1.0 0.00 0.00 0.00 76 1012.2
20260906000807 97 23 1.0 1.0 0.00 0.00 0.00 38 1010.5
20260906000457 97 56 1.0 1.0 0.00 0.00 0.00 38 1010.5
20260905235808 98 175 1.0 1.0 0.00 0.00 0.00 38 1010.5
20260905234807 98 220 1.0 1.0 0.00 0.00 0.00 38 1010.5
20260905233808 98 138 1.0 1.0 0.00 0.00 0.00 37 1010.5
20260905233257 98 133 1.0 1.0 0.00 0.00 0.00 37 1010.5
20260905232257 98 169 1.0 1.0 0.00 0.00 0.00 37 1010.5
20260905232201 98 169 1.0 1.0 0.00 0.00 0.00 37 1010.5
20260905231203 98 322 1.0 1.0 0.00 0.00 0.00 37 1010.5